| time (UTC) | temp F | wind direction | speed knots | gust knots | rain 1hr in | rain 24hr in | rain mn in | humidity % | barometer mb |
| 20260902092826 | 58 | 190 | 0.9 | 2.6 | 0.00 | 0.00 | 0.00 | 81 | 1009.9 |
| 20260902092326 | 58 | 190 | 1.7 | 3.5 | 0.00 | 0.00 | 0.00 | 81 | 1010.0 |
| 20260902091826 | 58 | 190 | 1.7 | 3.5 | 0.00 | 0.00 | 0.00 | 81 | 1010.1 |
| 20260902091323 | 58 | 190 | 1.7 | 4.3 | 0.00 | 0.00 | 0.00 | 81 | 1010.2 |
| 20260902090824 | 58 | 190 | 1.7 | 4.3 | 0.00 | 0.00 | 0.00 | 81 | 1010.1 |
| 20260902090324 | 58 | 178 | 0.9 | 2.6 | 0.00 | 0.00 | 0.00 | 81 | 1010.1 |
| 20260902085824 | 58 | 179 | 0.9 | 3.5 | 0.00 | 0.00 | 0.00 | 82 | 1010.2 |
| 20260902085323 | 58 | 170 | 0.9 | 4.3 | 0.00 | 0.00 | 0.00 | 83 | 1010.3 |
| 20260902084823 | 58 | 161 | 0.9 | 4.3 | 0.00 | 0.00 | 0.00 | 84 | 1010.3 |
| 20260902084324 | 57 | 192 | 0.0 | 2.6 | 0.00 | 0.00 | 0.00 | 85 | 1010.4 |
| 20260902083824 | 57 | 200 | 0.0 | 1.7 | 0.00 | 0.00 | 0.00 | 86 | 1010.4 |
| 20260902083322 | 56 | 254 | 0.0 | 1.7 | 0.00 | 0.00 | 0.00 | 87 | 1010.4 |
| 20260902082826 | 56 | 254 | 0.0 | 0.0 | 0.00 | 0.00 | 0.00 | 87 | 1010.5 |
| 20260902082821 | 56 | 254 | 0.0 | 0.0 | 0.00 | 0.00 | 0.00 | 87 | 1010.4 |
| 20260902081825 | 55 | 254 | 0.0 | 0.0 | 0.00 | 0.00 | 0.00 | 85 | 1010.6 |
| 20260902081820 | 55 | 254 | 0.0 | 0.0 | 0.00 | 0.00 | 0.00 | 86 | 1010.4 |
| 20260902081319 | 55 | 254 | 0.0 | 0.0 | 0.00 | 0.00 | 0.00 | 85 | 1010.6 |
| 20260902080319 | 55 | 254 | 0.0 | 0.0 | 0.00 | 0.00 | 0.00 | 85 | 1010.6 |
| 20260902075824 | 55 | 254 | 0.0 | 0.0 | 0.00 | 0.00 | 0.00 | 85 | 1010.7 |
| 20260902075820 | 55 | 254 | 0.0 | 0.0 | 0.00 | 0.00 | 0.00 | 87 | 1010.7 |
| 20260902074819 | 55 | 254 | 0.0 | 0.0 | 0.00 | 0.00 | 0.00 | 85 | 1010.8 |
| 20260902074318 | 55 | 254 | 0.0 | 0.0 | 0.00 | 0.00 | 0.00 | 85 | 1010.8 |
| 20260902073817 | 55 | 254 | 0.0 | 0.0 | 0.00 | 0.00 | 0.00 | 82 | 1010.9 |
| 20260902073316 | 55 | 254 | 0.0 | 0.9 | 0.00 | 0.00 | 0.00 | 81 | 1010.9 |
| 20260902072816 | 56 | 254 | 0.0 | 0.9 | 0.00 | 0.00 | 0.00 | 80 | 1010.9 |
| 20260902072317 | 56 | 254 | 0.0 | 1.7 | 0.00 | 0.00 | 0.00 | 81 | 1010.9 |
| 20260902071822 | 57 | 254 | 0.0 | 1.7 | 0.00 | 0.00 | 0.00 | 80 | 1011.0 |
| 20260902071818 | 57 | 254 | 0.0 | 1.7 | 0.00 | 0.00 | 0.00 | 80 | 1011.0 |
| 20260902070817 | 58 | 297 | 0.0 | 1.7 | 0.00 | 0.00 | 0.00 | 79 | 1011.1 |
| 20260902070320 | 59 | 297 | 0.0 | 1.7 | 0.00 | 0.00 | 0.00 | 78 | 1011.0 |
| 20260902070316 | 58 | 297 | 0.0 | 1.7 | 0.00 | 0.00 | 0.00 | 79 | 1011.1 |
| 20260902065928 | 60 | 297 | 0.0 | 0.9 | 0.00 | 0.00 | 0.00 | 77 | 1011.1 |
| 20260902065315 | 59 | 297 | 0.0 | 1.7 | 0.00 | 0.00 | 0.00 | 77 | 1011.1 |
| 20260902064315 | 60 | 297 | 0.0 | 2.6 | 0.00 | 0.00 | 0.00 | 77 | 1011.0 |
| 20260902063816 | 60 | 297 | 0.0 | 2.6 | 0.00 | 0.00 | 0.00 | 77 | 1011.0 |
| 20260902063315 | 61 | 211 | 0.0 | 1.7 | 0.00 | 0.00 | 0.00 | 77 | 1011.2 |
| 20260902062815 | 61 | 211 | 0.0 | 1.7 | 0.00 | 0.00 | 0.00 | 77 | 1011.3 |
| 20260902062319 | 61 | 207 | 0.0 | 1.7 | 0.00 | 0.00 | 0.00 | 76 | 1011.3 |
| 20260902062315 | 61 | 207 | 0.0 | 1.7 | 0.00 | 0.00 | 0.00 | 76 | 1011.3 |
| 20260902061316 | 61 | 207 | 0.0 | 1.7 | 0.00 | 0.00 | 0.00 | 76 | 1011.3 |
| 20260902060813 | 61 | 207 | 0.0 | 1.7 | 0.00 | 0.00 | 0.00 | 75 | 1011.3 |
| 20260902060313 | 61 | 207 | 0.9 | 1.7 | 0.00 | 0.00 | 0.00 | 75 | 1011.4 |
| 20260902055813 | 61 | 207 | 0.9 | 2.6 | 0.00 | 0.00 | 0.00 | 75 | 1011.4 |
| 20260902055313 | 61 | 208 | 0.0 | 2.6 | 0.00 | 0.00 | 0.00 | 75 | 1011.5 |
| 20260902054814 | 61 | 210 | 0.0 | 1.7 | 0.00 | 0.00 | 0.00 | 75 | 1011.5 |
| 20260902054313 | 61 | 210 | 0.0 | 1.7 | 0.00 | 0.00 | 0.00 | 75 | 1011.5 |
| 20260902053813 | 61 | 210 | 0.0 | 1.7 | 0.00 | 0.00 | 0.00 | 75 | 1011.5 |
| 20260902053312 | 61 | 210 | 0.0 | 1.7 | 0.00 | 0.00 | 0.00 | 75 | 1011.5 |
| 20260902052811 | 61 | 210 | 0.0 | 1.7 | 0.00 | 0.00 | 0.00 | 75 | 1011.6 |
| 20260902052316 | 61 | 222 | 0.0 | 2.6 | 0.00 | 0.00 | 0.00 | 75 | 1011.6 |
| 20260902052312 | 61 | 219 | 0.0 | 2.6 | 0.00 | 0.00 | 0.00 | 75 | 1011.6 |
| 20260902051311 | 61 | 231 | 0.0 | 1.7 | 0.00 | 0.00 | 0.00 | 75 | 1011.6 |
| 20260902050816 | 61 | 285 | 0.0 | 1.7 | 0.00 | 0.00 | 0.00 | 74 | 1011.6 |
| 20260902050812 | 61 | 247 | 0.0 | 1.7 | 0.00 | 0.00 | 0.00 | 75 | 1011.6 |
| 20260902045811 | 61 | 285 | 0.0 | 1.7 | 0.00 | 0.00 | 0.00 | 74 | 1011.7 |
| 20260902045317 | 61 | 286 | 0.0 | 1.7 | 0.00 | 0.00 | 0.00 | 75 | 1011.6 |
| 20260902044814 | 61 | 286 | 0.0 | 1.7 | 0.00 | 0.00 | 0.00 | 74 | 1011.7 |
| 20260902044310 | 62 | 286 | 0.0 | 0.0 | 0.00 | 0.00 | 0.00 | 74 | 1011.6 |
| 20260902043811 | 62 | 286 | 0.0 | 0.0 | 0.00 | 0.00 | 0.00 | 74 | 1011.6 |
| 20260902043309 | 62 | 286 | 0.0 | 0.0 | 0.00 | 0.00 | 0.00 | 74 | 1011.6 |
| 20260902042808 | 62 | 286 | 0.0 | 0.0 | 0.00 | 0.00 | 0.00 | 73 | 1011.6 |
| 20260902042310 | 62 | 286 | 0.0 | 0.0 | 0.00 | 0.00 | 0.00 | 73 | 1011.5 |
| 20260902041810 | 62 | 286 | 0.0 | 1.7 | 0.00 | 0.00 | 0.00 | 72 | 1011.5 |
| 20260902041309 | 62 | 286 | 0.0 | 1.7 | 0.00 | 0.00 | 0.00 | 71 | 1011.6 |
| 20260902040809 | 62 | 286 | 0.0 | 1.7 | 0.00 | 0.00 | 0.00 | 72 | 1011.6 |
| 20260902040309 | 62 | 286 | 0.0 | 1.7 | 0.00 | 0.00 | 0.00 | 72 | 1011.5 |
| 20260902035809 | 62 | 286 | 0.0 | 1.7 | 0.00 | 0.00 | 0.00 | 72 | 1011.6 |
| 20260902035308 | 62 | 286 | 0.0 | 1.7 | 0.00 | 0.00 | 0.00 | 72 | 1011.6 |
| 20260902034813 | 62 | 286 | 0.9 | 2.6 | 0.00 | 0.00 | 0.00 | 72 | 1011.5 |
| 20260902034809 | 62 | 286 | 0.9 | 1.7 | 0.00 | 0.00 | 0.00 | 72 | 1011.5 |
| 20260902033809 | 62 | 286 | 0.0 | 2.6 | 0.00 | 0.00 | 0.00 | 72 | 1011.5 |
| 20260902033310 | 62 | 286 | 0.9 | 2.6 | 0.00 | 0.00 | 0.00 | 72 | 1011.5 |
| 20260902032809 | 63 | 286 | 1.7 | 3.5 | 0.00 | 0.00 | 0.00 | 71 | 1011.6 |
| 20260902032423 | 63 | 269 | 0.9 | 3.5 | 0.00 | 0.00 | 0.00 | 71 | 1011.6 |
| 20260902032315 | 63 | 269 | 0.0 | 3.5 | 0.00 | 0.00 | 0.00 | 71 | 1011.6 |
| 20260902032311 | 63 | 297 | 0.9 | 3.5 | 0.00 | 0.00 | 0.00 | 71 | 1011.6 |
| 20260902030810 | 63 | 261 | 0.0 | 1.7 | 0.00 | 0.00 | 0.00 | 70 | 1011.6 |
| 20260902030806 | 63 | 260 | 0.0 | 2.6 | 0.00 | 0.00 | 0.00 | 70 | 1011.6 |
| 20260902025810 | 64 | 302 | 0.9 | 2.6 | 0.00 | 0.00 | 0.00 | 69 | 1011.5 |
| 20260902025805 | 63 | 261 | 0.9 | 2.6 | 0.00 | 0.00 | 0.00 | 69 | 1011.5 |
| 20260902024805 | 64 | 281 | 0.9 | 2.6 | 0.00 | 0.00 | 0.00 | 69 | 1011.6 |
| 20260902024305 | 64 | 294 | 0.9 | 3.5 | 0.00 | 0.00 | 0.00 | 69 | 1011.5 |
| 20260902023804 | 64 | 261 | 0.9 | 3.5 | 0.00 | 0.00 | 0.00 | 69 | 1011.5 |
| 20260902023305 | 64 | 246 | 0.9 | 3.5 | 0.00 | 0.00 | 0.00 | 69 | 1011.5 |
| 20260902022805 | 64 | 213 | 0.9 | 5.2 | 0.00 | 0.00 | 0.00 | 68 | 1011.5 |
| 20260902022310 | 65 | 306 | 1.7 | 3.5 | 0.00 | 0.00 | 0.00 | 67 | 1011.4 |
| 20260902022306 | 64 | 273 | 0.9 | 5.2 | 0.00 | 0.00 | 0.00 | 68 | 1011.5 |
| 20260902021801 | 65 | 292 | 1.7 | 3.5 | 0.00 | 0.00 | 0.00 | 67 | 1011.4 |
| 20260902020800 | 65 | 259 | 1.7 | 4.3 | 0.00 | 0.00 | 0.00 | 66 | 1011.4 |
| 20260902020302 | 66 | 286 | 1.7 | 4.3 | 0.00 | 0.00 | 0.00 | 64 | 1011.4 |
| 20260902015800 | 67 | 282 | 1.7 | 4.3 | 0.00 | 0.00 | 0.00 | 63 | 1011.3 |
| 20260902015305 | 67 | 302 | 1.7 | 5.2 | 0.00 | 0.00 | 0.00 | 63 | 1011.3 |
| 20260902014806 | 67 | 297 | 1.7 | 7.0 | 0.00 | 0.00 | 0.00 | 62 | 1011.4 |
| 20260902014802 | 67 | 280 | 1.7 | 5.2 | 0.00 | 0.00 | 0.00 | 63 | 1011.3 |
| 20260902014415 | 68 | 189 | 1.7 | 7.0 | 0.00 | 0.00 | 0.00 | 61 | 1011.3 |
| 20260902013304 | 68 | 265 | 2.6 | 7.0 | 0.00 | 0.00 | 0.00 | 60 | 1011.3 |
| 20260902013300 | 68 | 200 | 1.7 | 7.0 | 0.00 | 0.00 | 0.00 | 61 | 1011.3 |
| 20260902012308 | 68 | 219 | 2.6 | 7.0 | 0.00 | 0.00 | 0.00 | 59 | 1011.3 |
| 20260902012257 | 68 | 255 | 3.5 | 7.0 | 0.00 | 0.00 | 0.00 | 60 | 1011.4 |
| 20260902011256 | 68 | 158 | 1.7 | 7.0 | 0.00 | 0.00 | 0.00 | 61 | 1011.2 |
| 20260902010802 | 67 | 286 | 1.7 | 7.0 | 0.00 | 0.00 | 0.00 | 62 | 1011.3 |
| 20260902010257 | 66 | 239 | 1.7 | 7.0 | 0.00 | 0.00 | 0.00 | 65 | 1011.3 |
| 20260902005759 | 66 | 248 | 1.7 | 6.1 | 0.00 | 0.00 | 0.00 | 65 | 1011.3 |
| 20260902005257 | 66 | 218 | 1.7 | 7.0 | 0.00 | 0.00 | 0.00 | 65 | 1011.3 |
| 20260902004756 | 66 | 229 | 1.7 | 7.0 | 0.00 | 0.00 | 0.00 | 65 | 1011.3 |
| 20260902004256 | 66 | 251 | 1.7 | 7.0 | 0.00 | 0.00 | 0.00 | 65 | 1011.3 |
| 20260902003757 | 66 | 238 | 2.6 | 7.0 | 0.00 | 0.00 | 0.00 | 66 | 1011.1 |
| 20260902003258 | 66 | 314 | 1.7 | 6.1 | 0.00 | 0.00 | 0.00 | 65 | 1011.2 |
| 20260902002800 | 65 | 266 | 1.7 | 5.2 | 0.00 | 0.00 | 0.00 | 67 | 1011.3 |
| 20260902002756 | 66 | 296 | 1.7 | 6.1 | 0.00 | 0.00 | 0.00 | 66 | 1011.3 |
| 20260902001756 | 65 | 259 | 1.7 | 5.2 | 0.00 | 0.00 | 0.00 | 69 | 1011.3 |
| 20260902001257 | 65 | 283 | 1.7 | 4.3 | 0.00 | 0.00 | 0.00 | 68 | 1011.3 |
| 20260902000756 | 65 | 286 | 1.7 | 4.3 | 0.00 | 0.00 | 0.00 | 69 | 1011.3 |
| 20260902000257 | 64 | 267 | 2.6 | 7.0 | 0.00 | 0.00 | 0.00 | 69 | 1011.3 |
| 20260901235757 | 65 | 270 | 2.6 | 7.0 | 0.00 | 0.00 | 0.00 | 69 | 1011.3 |
| 20260901235307 | 65 | 299 | 2.6 | 7.0 | 0.00 | 0.00 | 0.00 | 68 | 1011.4 |
| 20260901235258 | 65 | 282 | 1.7 | 5.2 | 0.00 | 0.00 | 0.00 | 68 | 1011.4 |
| 20260901234910 | 65 | 233 | 2.6 | 7.0 | 0.00 | 0.00 | 0.00 | 68 | 1011.4 |
| 20260901233758 | 65 | 286 | 1.7 | 7.0 | 0.00 | 0.00 | 0.00 | 69 | 1011.3 |
| 20260901233301 | 65 | 306 | 1.7 | 7.8 | 0.00 | 0.00 | 0.00 | 70 | 1011.2 |
| 20260901233256 | 65 | 291 | 1.7 | 7.0 | 0.00 | 0.00 | 0.00 | 70 | 1011.2 |
| 20260901232258 | 65 | 229 | 2.6 | 7.8 | 0.00 | 0.00 | 0.00 | 70 | 1011.3 |
| 20260901231757 | 65 | 302 | 2.6 | 7.0 | 0.00 | 0.00 | 0.00 | 71 | 1011.4 |
| 20260901231257 | 65 | 289 | 1.7 | 7.0 | 0.00 | 0.00 | 0.00 | 71 | 1011.4 |
| 20260901230756 | 65 | 351 | 2.6 | 7.0 | 0.00 | 0.00 | 0.00 | 71 | 1011.4 |
| 20260901230256 | 65 | 331 | 3.5 | 7.0 | 0.00 | 0.00 | 0.00 | 71 | 1011.4 |
| 20260901225756 | 65 | 305 | 3.5 | 9.6 | 0.00 | 0.00 | 0.00 | 71 | 1011.4 |
| 20260901225255 | 65 | 355 | 2.6 | 9.6 | 0.00 | 0.00 | 0.00 | 71 | 1011.5 |
| 20260901224756 | 64 | 303 | 2.6 | 7.0 | 0.00 | 0.00 | 0.00 | 72 | 1011.4 |
| 20260901224255 | 64 | 313 | 2.6 | 7.8 | 0.00 | 0.00 | 0.00 | 72 | 1011.4 |
| 20260901223755 | 64 | 315 | 2.6 | 7.8 | 0.00 | 0.00 | 0.00 | 72 | 1011.3 |
| 20260901223255 | 64 | 298 | 2.6 | 7.0 | 0.00 | 0.00 | 0.00 | 73 | 1011.4 |
| 20260901222755 | 64 | 306 | 2.6 | 7.0 | 0.00 | 0.00 | 0.00 | 74 | 1011.5 |
| 20260901222253 | 64 | 273 | 2.6 | 7.0 | 0.00 | 0.00 | 0.00 | 74 | 1011.6 |
| 20260901221756 | 64 | 328 | 2.6 | 7.0 | 0.00 | 0.00 | 0.00 | 74 | 1011.6 |
| 20260901221751 | 64 | 321 | 2.6 | 7.0 | 0.00 | 0.00 | 0.00 | 74 | 1011.6 |
| 20260901220751 | 64 | 299 | 2.6 | 5.2 | 0.00 | 0.00 | 0.00 | 73 | 1011.5 |
| 20260901220250 | 65 | 258 | 1.7 | 5.2 | 0.00 | 0.00 | 0.00 | 72 | 1011.5 |
| 20260901215754 | 65 | 300 | 1.7 | 5.2 | 0.00 | 0.00 | 0.00 | 72 | 1011.3 |
| 20260901215750 | 65 | 304 | 1.7 | 5.2 | 0.00 | 0.00 | 0.00 | 71 | 1011.4 |
| 20260901214750 | 65 | 309 | 1.7 | 5.2 | 0.00 | 0.00 | 0.00 | 70 | 1011.2 |
| 20260901214248 | 66 | 257 | 1.7 | 5.2 | 0.00 | 0.00 | 0.00 | 69 | 1011.2 |
| 20260901213753 | 66 | 222 | 0.0 | 1.7 | 0.00 | 0.00 | 0.00 | 67 | 1011.1 |
| 20260901213748 | 66 | 284 | 0.9 | 5.2 | 0.00 | 0.00 | 0.00 | 68 | 1011.1 |
| 20260901212746 | 66 | 229 | 0.9 | 1.7 | 0.00 | 0.00 | 0.00 | 67 | 1011.0 |
| 20260901212246 | 66 | 230 | 0.9 | 1.7 | 0.00 | 0.00 | 0.00 | 68 | 1011.1 |
| 20260901211747 | 66 | 231 | 0.9 | 1.7 | 0.00 | 0.00 | 0.00 | 68 | 1011.1 |
| 20260901211244 | 66 | 232 | 0.9 | 3.5 | 0.00 | 0.00 | 0.00 | 68 | 1011.1 |
| 20260901210746 | 66 | 232 | 0.9 | 3.5 | 0.00 | 0.00 | 0.00 | 67 | 1011.1 |
| 20260901210244 | 66 | 262 | 0.9 | 3.5 | 0.00 | 0.00 | 0.00 | 67 | 1011.2 |
| 20260901205743 | 66 | 263 | 0.9 | 3.5 | 0.00 | 0.00 | 0.00 | 68 | 1011.1 |
| 20260901205245 | 67 | 237 | 0.9 | 4.3 | 0.00 | 0.00 | 0.00 | 67 | 1011.0 |
| 20260901204745 | 67 | 229 | 1.7 | 4.3 | 0.00 | 0.00 | 0.00 | 67 | 1011.1 |
| 20260901204243 | 67 | 201 | 0.9 | 3.5 | 0.00 | 0.00 | 0.00 | 68 | 1011.1 |
| 20260901203745 | 67 | 257 | 0.9 | 3.5 | 0.00 | 0.00 | 0.00 | 68 | 1011.2 |
| 20260901203243 | 67 | 300 | 0.9 | 3.5 | 0.00 | 0.00 | 0.00 | 69 | 1011.2 |
| 20260901202743 | 66 | 242 | 0.9 | 2.6 | 0.00 | 0.00 | 0.00 | 69 | 1011.2 |
| 20260901202242 | 66 | 242 | 0.9 | 2.6 | 0.00 | 0.00 | 0.00 | 69 | 1011.2 |
| 20260901201742 | 66 | 242 | 0.9 | 2.6 | 0.00 | 0.00 | 0.00 | 69 | 1011.3 |
| 20260901201246 | 66 | 247 | 0.9 | 3.5 | 0.00 | 0.00 | 0.00 | 70 | 1011.3 |
| 20260901201242 | 66 | 261 | 0.9 | 3.5 | 0.00 | 0.00 | 0.00 | 70 | 1011.3 |
| 20260901200243 | 66 | 238 | 1.7 | 4.3 | 0.00 | 0.00 | 0.00 | 69 | 1011.3 |
| 20260901195741 | 66 | 302 | 2.6 | 4.3 | 0.00 | 0.00 | 0.00 | 70 | 1011.4 |
| 20260901195240 | 66 | 313 | 1.7 | 5.2 | 0.00 | 0.00 | 0.00 | 69 | 1011.3 |
| 20260901194741 | 67 | 293 | 1.7 | 5.2 | 0.00 | 0.00 | 0.00 | 69 | 1011.2 |
| 20260901194247 | 67 | 199 | 0.9 | 4.3 | 0.00 | 0.00 | 0.00 | 66 | 1011.4 |
| 20260901194240 | 67 | 270 | 0.9 | 4.3 | 0.00 | 0.00 | 0.00 | 69 | 1011.2 |
| 20260901193740 | 67 | 267 | 0.9 | 3.5 | 0.00 | 0.00 | 0.00 | 69 | 1011.3 |
| 20260901193241 | 67 | 295 | 1.7 | 4.3 | 0.00 | 0.00 | 0.00 | 67 | 1011.3 |
| 20260901192854 | 67 | 299 | 0.9 | 2.6 | 0.00 | 0.00 | 0.00 | 66 | 1011.4 |
| 20260901192240 | 67 | 298 | 0.9 | 2.6 | 0.00 | 0.00 | 0.00 | 66 | 1011.4 |
| 20260901191239 | 67 | 297 | 0.9 | 1.7 | 0.00 | 0.00 | 0.00 | 68 | 1011.4 |
| 20260901190743 | 66 | 252 | 0.0 | 1.7 | 0.00 | 0.00 | 0.00 | 68 | 1011.5 |
| 20260901190739 | 67 | 252 | 0.0 | 1.7 | 0.00 | 0.00 | 0.00 | 68 | 1011.4 |
| 20260901185742 | 65 | 254 | 0.9 | 1.7 | 0.00 | 0.00 | 0.00 | 71 | 1011.5 |
| 20260901185738 | 66 | 253 | 0.0 | 1.7 | 0.00 | 0.00 | 0.00 | 70 | 1011.5 |
| 20260901184738 | 65 | 294 | 0.9 | 1.7 | 0.00 | 0.00 | 0.00 | 70 | 1011.7 |
| 20260901184238 | 65 | 5 | 0.9 | 2.6 | 0.00 | 0.00 | 0.00 | 70 | 1011.7 |
| 20260901183739 | 65 | 5 | 0.9 | 2.6 | 0.00 | 0.00 | 0.00 | 70 | 1011.8 |
| 20260901183243 | 65 | 317 | 0.9 | 2.6 | 0.00 | 0.00 | 0.00 | 70 | 1011.8 |
| 20260901183238 | 65 | 29 | 0.9 | 2.6 | 0.00 | 0.00 | 0.00 | 70 | 1011.7 |
| 20260901182238 | 65 | 318 | 0.9 | 2.6 | 0.00 | 0.00 | 0.00 | 70 | 1011.7 |
| 20260901181737 | 65 | 9 | 0.0 | 1.7 | 0.00 | 0.00 | 0.00 | 70 | 1011.7 |
| 20260901181238 | 65 | 104 | 0.9 | 4.3 | 0.00 | 0.00 | 0.00 | 71 | 1011.6 |
| 20260901180738 | 65 | 82 | 1.7 | 4.3 | 0.00 | 0.00 | 0.00 | 70 | 1011.6 |
| 20260901180239 | 65 | 355 | 0.9 | 1.7 | 0.00 | 0.00 | 0.00 | 71 | 1011.7 |
| 20260901175739 | 65 | 342 | 0.9 | 2.6 | 0.00 | 0.00 | 0.00 | 71 | 1011.6 |
| 20260901175238 | 65 | 0 | 0.9 | 2.6 | 0.00 | 0.00 | 0.00 | 72 | 1011.6 |
| 20260901174736 | 65 | 5 | 0.9 | 2.6 | 0.00 | 0.00 | 0.00 | 72 | 1011.6 |
| 20260901174235 | 65 | 22 | 0.9 | 1.7 | 0.00 | 0.00 | 0.00 | 73 | 1011.6 |
| 20260901173735 | 65 | 20 | 0.9 | 2.6 | 0.00 | 0.00 | 0.00 | 73 | 1011.6 |
| 20260901173236 | 65 | 22 | 0.9 | 2.6 | 0.00 | 0.00 | 0.00 | 73 | 1011.7 |
| 20260901172733 | 64 | 350 | 1.7 | 2.6 | 0.00 | 0.00 | 0.00 | 73 | 1011.7 |
| 20260901172235 | 64 | 344 | 1.7 | 3.5 | 0.00 | 0.00 | 0.00 | 74 | 1011.7 |
| 20260901171738 | 65 | 340 | 1.7 | 3.5 | 0.00 | 0.00 | 0.00 | 72 | 1011.6 |
| 20260901171734 | 65 | 351 | 1.7 | 3.5 | 0.00 | 0.00 | 0.00 | 73 | 1011.6 |
| 20260901170740 | 66 | 261 | 0.9 | 2.6 | 0.00 | 0.00 | 0.00 | 70 | 1011.6 |
| 20260901170735 | 65 | 304 | 1.7 | 3.5 | 0.00 | 0.00 | 0.00 | 71 | 1011.6 |
| 20260901165736 | 66 | 169 | 0.9 | 3.5 | 0.00 | 0.00 | 0.00 | 70 | 1011.5 |
| 20260901165731 | 66 | 201 | 0.9 | 3.5 | 0.00 | 0.00 | 0.00 | 69 | 1011.6 |
| 20260901164736 | 64 | 233 | 0.9 | 1.7 | 0.00 | 0.00 | 0.00 | 76 | 1011.7 |
| 20260901164732 | 65 | 163 | 0.9 | 1.7 | 0.00 | 0.00 | 0.00 | 73 | 1011.6 |
| 20260901163731 | 63 | 235 | 0.0 | 1.7 | 0.00 | 0.00 | 0.00 | 76 | 1011.7 |
| 20260901163230 | 63 | 238 | 0.0 | 1.7 | 0.00 | 0.00 | 0.00 | 76 | 1011.7 |
| 20260901162731 | 63 | 238 | 0.9 | 1.7 | 0.00 | 0.00 | 0.00 | 77 | 1011.8 |
| 20260901162231 | 62 | 240 | 0.9 | 1.7 | 0.00 | 0.00 | 0.00 | 78 | 1011.9 |
| 20260901161730 | 62 | 244 | 0.9 | 1.7 | 0.00 | 0.00 | 0.00 | 79 | 1011.9 |
| 20260901161229 | 62 | 245 | 0.9 | 1.7 | 0.00 | 0.00 | 0.00 | 80 | 1011.9 |
| 20260901160727 | 61 | 262 | 0.0 | 2.6 | 0.00 | 0.00 | 0.00 | 80 | 1011.9 |
| 20260901160227 | 61 | 262 | 0.9 | 2.6 | 0.00 | 0.00 | 0.00 | 81 | 1011.9 |
| 20260901155725 | 61 | 257 | 0.9 | 3.5 | 0.00 | 0.00 | 0.00 | 82 | 1011.9 |
| 20260901155225 | 61 | 294 | 1.7 | 3.5 | 0.00 | 0.00 | 0.00 | 82 | 1011.9 |
| 20260901154727 | 61 | 294 | 0.9 | 2.6 | 0.00 | 0.00 | 0.00 | 82 | 1012.0 |
| 20260901154225 | 61 | 293 | 1.7 | 2.6 | 0.00 | 0.00 | 0.00 | 82 | 1011.9 |
| 20260901153730 | 60 | 300 | 1.7 | 3.5 | 0.00 | 0.00 | 0.00 | 81 | 1011.9 |
| 20260901153726 | 61 | 294 | 1.7 | 3.5 | 0.00 | 0.00 | 0.00 | 82 | 1012.0 |
| 20260901153223 | 60 | 294 | 1.7 | 3.5 | 0.00 | 0.00 | 0.00 | 82 | 1011.9 |
| 20260901152228 | 60 | 248 | 0.9 | 1.7 | 0.00 | 0.00 | 0.00 | 81 | 1011.9 |
| 20260901152224 | 60 | 297 | 0.9 | 3.5 | 0.00 | 0.00 | 0.00 | 81 | 1011.9 |
| 20260901151225 | 60 | 237 | 0.9 | 1.7 | 0.00 | 0.00 | 0.00 | 81 | 1011.9 |
| 20260901150725 | 60 | 237 | 0.9 | 1.7 | 0.00 | 0.00 | 0.00 | 79 | 1011.9 |
| 20260901150223 | 60 | 238 | 0.9 | 2.6 | 0.00 | 0.00 | 0.00 | 78 | 1011.9 |
| 20260901145723 | 60 | 241 | 0.9 | 2.6 | 0.00 | 0.00 | 0.00 | 78 | 1011.8 |
| 20260901145224 | 60 | 185 | 0.9 | 1.7 | 0.00 | 0.00 | 0.00 | 80 | 1011.8 |
| 20260901144724 | 60 | 179 | 0.9 | 1.7 | 0.00 | 0.00 | 0.00 | 81 | 1011.8 |
| 20260901144225 | 60 | 179 | 0.9 | 1.7 | 0.00 | 0.00 | 0.00 | 81 | 1011.8 |
| 20260901143723 | 60 | 179 | 0.9 | 1.7 | 0.00 | 0.00 | 0.00 | 81 | 1011.8 |
| 20260901143225 | 60 | 179 | 0.9 | 2.6 | 0.00 | 0.00 | 0.00 | 81 | 1011.7 |
| 20260901142725 | 59 | 179 | 0.9 | 2.6 | 0.00 | 0.00 | 0.00 | 81 | 1011.7 |
| 20260901142224 | 59 | 177 | 0.9 | 2.6 | 0.00 | 0.00 | 0.00 | 81 | 1011.6 |
| 20260901141725 | 59 | 176 | 0.9 | 2.6 | 0.00 | 0.00 | 0.00 | 81 | 1011.6 |
| 20260901141224 | 59 | 180 | 0.9 | 1.7 | 0.00 | 0.00 | 0.00 | 81 | 1011.5 |
| 20260901140724 | 59 | 180 | 0.0 | 1.7 | 0.00 | 0.00 | 0.00 | 82 | 1011.6 |
| 20260901140224 | 59 | 180 | 0.0 | 1.7 | 0.00 | 0.00 | 0.00 | 82 | 1011.5 |
| 20260901135729 | 59 | 184 | 0.9 | 1.7 | 0.00 | 0.00 | 0.00 | 82 | 1011.5 |
| 20260901135725 | 59 | 184 | 0.9 | 1.7 | 0.00 | 0.00 | 0.00 | 82 | 1011.5 |
| 20260901134724 | 59 | 184 | 0.9 | 1.7 | 0.00 | 0.00 | 0.00 | 82 | 1011.5 |
| 20260901134223 | 58 | 184 | 0.9 | 1.7 | 0.00 | 0.00 | 0.00 | 82 | 1011.4 |
| 20260901133723 | 58 | 184 | 1.7 | 2.6 | 0.00 | 0.00 | 0.00 | 82 | 1011.3 |
| 20260901133225 | 58 | 184 | 0.9 | 2.6 | 0.00 | 0.00 | 0.00 | 82 | 1011.4 |
| 20260901132722 | 58 | 188 | 0.9 | 2.6 | 0.00 | 0.00 | 0.00 | 82 | 1011.4 |
| 20260901132221 | 58 | 188 | 0.9 | 2.6 | 0.00 | 0.00 | 0.00 | 82 | 1011.4 |
| 20260901131722 | 58 | 189 | 0.9 | 2.6 | 0.00 | 0.00 | 0.00 | 83 | 1011.4 |
| 20260901131223 | 58 | 196 | 0.9 | 1.7 | 0.00 | 0.00 | 0.00 | 82 | 1011.4 |
| 20260901130718 | 58 | 196 | 0.9 | 1.7 | 0.00 | 0.00 | 0.00 | 82 | 1011.4 |
| 20260901130223 | 58 | 196 | 0.9 | 2.6 | 0.00 | 0.00 | 0.00 | 82 | 1011.3 |
| 20260901130217 | 58 | 196 | 0.9 | 1.7 | 0.00 | 0.00 | 0.00 | 82 | 1011.4 |
| 20260901125830 | 58 | 196 | 0.9 | 2.6 | 0.00 | 0.00 | 0.00 | 82 | 1011.3 |
| 20260901124718 | 59 | 196 | 0.9 | 2.6 | 0.00 | 0.00 | 0.00 | 81 | 1011.3 |
| 20260901124219 | 59 | 196 | 0.9 | 2.6 | 0.00 | 0.00 | 0.00 | 81 | 1011.3 |
| 20260901123717 | 59 | 234 | 0.0 | 2.6 | 0.00 | 0.00 | 0.00 | 83 | 1011.2 |
| 20260901123217 | 59 | 243 | 0.0 | 1.7 | 0.00 | 0.00 | 0.00 | 83 | 1011.3 |
| 20260901122717 | 59 | 243 | 0.0 | 1.7 | 0.00 | 0.00 | 0.00 | 83 | 1011.3 |
| 20260901122217 | 59 | 244 | 0.0 | 1.7 | 0.00 | 0.00 | 0.00 | 83 | 1011.2 |
| 20260901121718 | 60 | 244 | 0.0 | 1.7 | 0.00 | 0.00 | 0.00 | 83 | 1011.3 |
| 20260901121218 | 60 | 244 | 0.0 | 1.7 | 0.00 | 0.00 | 0.00 | 83 | 1011.3 |
| 20260901120717 | 60 | 226 | 0.0 | 1.7 | 0.00 | 0.00 | 0.00 | 82 | 1011.3 |
| 20260901120219 | 60 | 224 | 0.0 | 3.5 | 0.00 | 0.00 | 0.00 | 83 | 1011.3 |
| 20260901115716 | 60 | 224 | 0.0 | 3.5 | 0.00 | 0.00 | 0.00 | 82 | 1011.3 |
| 20260901115216 | 60 | 251 | 0.0 | 1.7 | 0.00 | 0.00 | 0.00 | 82 | 1011.3 |
| 20260901114715 | 60 | 251 | 0.9 | 1.7 | 0.00 | 0.00 | 0.00 | 82 | 1011.2 |
| 20260901114216 | 60 | 252 | 0.9 | 1.7 | 0.00 | 0.00 | 0.00 | 82 | 1011.1 |
| 20260901113715 | 60 | 252 | 0.9 | 2.6 | 0.00 | 0.00 | 0.00 | 82 | 1011.2 |
| 20260901113220 | 60 | 247 | 0.9 | 3.5 | 0.00 | 0.00 | 0.00 | 82 | 1011.1 |
| 20260901113215 | 60 | 252 | 0.9 | 3.5 | 0.00 | 0.00 | 0.00 | 82 | 1011.2 |
| 20260901112215 | 60 | 252 | 0.0 | 2.6 | 0.00 | 0.00 | 0.00 | 82 | 1011.1 |
| 20260901111715 | 60 | 270 | 0.9 | 3.5 | 0.00 | 0.00 | 0.00 | 82 | 1011.1 |
| 20260901111213 | 60 | 241 | 1.7 | 5.2 | 0.00 | 0.00 | 0.00 | 81 | 1011.0 |
| 20260901110715 | 60 | 217 | 1.7 | 5.2 | 0.00 | 0.00 | 0.00 | 81 | 1011.0 |
| 20260901110215 | 60 | 243 | 0.9 | 3.5 | 0.00 | 0.00 | 0.00 | 81 | 1011.0 |
| 20260901105713 | 60 | 282 | 0.9 | 3.5 | 0.00 | 0.00 | 0.00 | 81 | 1010.9 |
| 20260901105212 | 60 | 237 | 0.9 | 3.5 | 0.00 | 0.00 | 0.00 | 81 | 1011.0 |
| 20260901104712 | 60 | 259 | 0.9 | 3.5 | 0.00 | 0.00 | 0.00 | 81 | 1011.0 |
| 20260901104210 | 60 | 248 | 0.9 | 3.5 | 0.00 | 0.00 | 0.00 | 80 | 1011.0 |
| 20260901103712 | 60 | 248 | 1.7 | 5.2 | 0.00 | 0.00 | 0.00 | 80 | 1010.9 |
| 20260901103212 | 60 | 257 | 2.6 | 9.6 | 0.00 | 0.00 | 0.00 | 80 | 1011.0 |
| 20260901102711 | 60 | 290 | 1.7 | 9.6 | 0.00 | 0.00 | 0.00 | 81 | 1011.0 |
| 20260901102211 | 60 | 247 | 0.9 | 4.3 | 0.00 | 0.00 | 0.00 | 81 | 1010.9 |
| 20260901101711 | 60 | 265 | 1.7 | 4.3 | 0.00 | 0.00 | 0.00 | 81 | 1011.0 |
| 20260901101216 | 60 | 244 | 1.7 | 4.3 | 0.00 | 0.00 | 0.00 | 81 | 1011.0 |
| 20260901101212 | 60 | 275 | 1.7 | 4.3 | 0.00 | 0.00 | 0.00 | 81 | 1011.0 |
| 20260901100210 | 59 | 236 | 1.7 | 5.2 | 0.00 | 0.00 | 0.00 | 81 | 1011.0 |
| 20260901095713 | 60 | 248 | 1.7 | 6.1 | 0.00 | 0.00 | 0.00 | 82 | 1010.9 |
| 20260901095708 | 60 | 258 | 1.7 | 5.2 | 0.00 | 0.00 | 0.00 | 81 | 1010.9 |
| 20260901095323 | 60 | 217 | 1.7 | 7.0 | 0.00 | 0.00 | 0.00 | 82 | 1011.0 |
| 20260901094708 | 60 | 232 | 1.7 | 6.1 | 0.00 | 0.00 | 0.00 | 82 | 1011.0 |
| 20260901093709 | 60 | 198 | 2.6 | 7.8 | 0.00 | 0.00 | 0.00 | 81 | 1011.0 |
| 20260901093209 | 59 | 255 | 2.6 | 7.8 | 0.00 | 0.00 | 0.00 | 82 | 1011.1 |